When you browse on this site, cookies collect data to enhance your experience and personalize the content and advertising you see.
Visit our Privacy Policy to learn more. By continuing to use the site, you agree to this use of cookies and data.
  • In Hungary
  • List of Countries
  • For 7 days
  • Water Temperature
  • Weather Map
  • News
  • Weather Widgets
  • user-avatar
    Login

    Hourly Weather Baloda Bazar

    Today, 19 August, Monday

    Time Temperature Precipitation Wind Pressure Humidity
    00:00 +27°C° 0.3 mm 2 mps 733 mmHg 92%
    01:00 +27°C° 0.3 mm 2 mps 733 mmHg 91%
    02:00 +27°C° 0.3 mm 2 mps 732 mmHg 91%
    03:00 +27°C° 0.2 mm 2 mps 732 mmHg 91%
    04:00 +27°C° 0.2 mm 2 mps 732 mmHg 91%
    05:00 +27°C° 0 mm 2 mps 732 mmHg 92%
    06:00 +27°C° 0.2 mm 2 mps 732 mmHg 89%
    07:00 +28°C° 0.2 mm 3 mps 733 mmHg 87%
    08:00 +28°C° 0.2 mm 4 mps 733 mmHg 85%
    09:00 +29°C° 0.5 mm 4 mps 733 mmHg 82%
    10:00 +30°C° 0.5 mm 3 mps 733 mmHg 79%
    11:00 +32°C° 0 mm 4 mps 734 mmHg 72%
    12:00 +32°C° 0.1 mm 4 mps 733 mmHg 71%
    13:00 +31°C° 0.1 mm 3 mps 733 mmHg 70%
    14:00 +33°C° 0.1 mm 3 mps 732 mmHg 68%
    15:00 +33°C° 0 mm 3 mps 732 mmHg 69%
    16:00 +32°C° 0 mm 2 mps 731 mmHg 70%
    17:00 +32°C° 0 mm 2 mps 731 mmHg 71%
    18:00 +31°C° 0.4 mm 1 mps 732 mmHg 74%
    19:00 +30°C° 0.4 mm 1 mps 732 mmHg 76%
    20:00 +29°C° 0.4 mm 1 mps 733 mmHg 79%
    21:00 +29°C° 0.1 mm 1 mps 733 mmHg 80%
    22:00 +29°C° 0.1 mm 1 mps 733 mmHg 81%
    23:00 +29°C° 0.1 mm 1 mps 733 mmHg 82%

    Tomorrow, 20 August, Tuesday

    Time Temperature Precipitation Wind Pressure Humidity
    00:00 +28°C° 0 mm 1 mps 732 mmHg 83%
    01:00 +28°C° 0 mm 1 mps 732 mmHg 84%
    02:00 +28°C° 0 mm 1 mps 731 mmHg 86%
    03:00 +28°C° 0 mm 1 mps 731 mmHg 86%
    04:00 +28°C° 0 mm 1 mps 731 mmHg 87%
    05:00 +27°C° 0 mm 1 mps 731 mmHg 88%
    06:00 +28°C° 0.3 mm 1 mps 732 mmHg 83%
    07:00 +29°C° 0.3 mm 2 mps 732 mmHg 79%
    08:00 +30°C° 0.3 mm 2 mps 733 mmHg 75%
    09:00 +32°C° 0.2 mm 2 mps 732 mmHg 70%
    10:00 +34°C° 0.2 mm 3 mps 732 mmHg 64%
    11:00 +35°C° 0.2 mm 3 mps 732 mmHg 59%
    12:00 +36°C° 0.1 mm 3 mps 731 mmHg 58%
    13:00 +36°C° 0.1 mm 3 mps 731 mmHg 57%
    14:00 +36°C° 0.1 mm 3 mps 730 mmHg 56%
    15:00 +35°C° 1.2 mm 3 mps 729 mmHg 61%
    16:00 +34°C° 1.2 mm 3 mps 729 mmHg 66%
    17:00 +33°C° 1.2 mm 3 mps 729 mmHg 71%
    18:00 +33°C° 1.1 mm 3 mps 730 mmHg 74%
    19:00 +31°C° 1.1 mm 3 mps 730 mmHg 77%
    20:00 +30°C° 1.1 mm 3 mps 731 mmHg 80%
    21:00 +29°C° 0 mm 3 mps 731 mmHg 81%
    22:00 +29°C° 0 mm 3 mps 731 mmHg 83%
    23:00 +29°C° 0 mm 3 mps 731 mmHg 84%

    Day after tomorrow, 21 August, Wednesday

    Time Temperature Precipitation Wind Pressure Humidity
    00:00 +29°C° 0.1 mm 3 mps 731 mmHg 84%
    01:00 +29°C° 0.1 mm 3 mps 730 mmHg 84%
    02:00 +28°C° 0.1 mm 3 mps 730 mmHg 84%
    03:00 +28°C° 0.1 mm 3 mps 730 mmHg 85%
    04:00 +28°C° 0.1 mm 3 mps 730 mmHg 85%
    05:00 +28°C° 0.1 mm 3 mps 730 mmHg 85%
    06:00 +29°C° 0.9 mm 3 mps 730 mmHg 83%
    07:00 +29°C° 0.9 mm 4 mps 731 mmHg 80%
    08:00 +30°C° 0.9 mm 4 mps 731 mmHg 78%
    09:00 +32°C° 2 mm 4 mps 731 mmHg 75%
    10:00 +33°C° 2 mm 5 mps 730 mmHg 73%
    11:00 +34°C° 2 mm 5 mps 730 mmHg 70%
    12:00 +34°C° 2.6 mm 5 mps 730 mmHg 70%
    13:00 +34°C° 2.6 mm 4 mps 729 mmHg 69%
    14:00 +34°C° 2.6 mm 4 mps 729 mmHg 69%
    15:00 +33°C° 2 mm 4 mps 728 mmHg 72%
    16:00 +33°C° 2 mm 3 mps 728 mmHg 75%
    17:00 +31°C° 2 mm 3 mps 728 mmHg 77%
    18:00 +30°C° 1.8 mm 3 mps 729 mmHg 79%
    19:00 +30°C° 1.8 mm 3 mps 729 mmHg 81%
    20:00 +29°C° 1.8 mm 3 mps 730 mmHg 83%
    21:00 +29°C° 0.7 mm 3 mps 730 mmHg 84%
    22:00 +28°C° 0.7 mm 2 mps 730 mmHg 86%
    23:00 +28°C° 0.7 mm 1 mps 730 mmHg 87%

    22 August, Thursday

    Time Temperature Precipitation Wind Pressure Humidity
    00:00 +28°C° 0 mm 2 mps 730 mmHg 87%
    01:00 +28°C° 0 mm 2 mps 729 mmHg 87%
    02:00 +27°C° 0 mm 2 mps 729 mmHg 87%
    03:00 +27°C° 0 mm 2 mps 729 mmHg 87%
    04:00 +27°C° 0 mm 2 mps 729 mmHg 86%
    05:00 +27°C° 0 mm 2 mps 729 mmHg 86%
    06:00 +27°C° 0 mm 2 mps 730 mmHg 85%
    07:00 +28°C° 0 mm 2 mps 730 mmHg 84%
    08:00 +28°C° 0 mm 2 mps 731 mmHg 82%
    09:00 +29°C° 0 mm 3 mps 730 mmHg 76%
    10:00 +31°C° 0 mm 3 mps 730 mmHg 70%
    11:00 +33°C° 0 mm 3 mps 730 mmHg 64%
    12:00 +34°C° 0.1 mm 3 mps 730 mmHg 62%
    13:00 +34°C° 0.1 mm 4 mps 729 mmHg 60%
    14:00 +35°C° 0.1 mm 4 mps 728 mmHg 58%
    15:00 +34°C° 0.1 mm 3 mps 728 mmHg 62%
    16:00 +34°C° 0.1 mm 3 mps 728 mmHg 66%
    17:00 +32°C° 0.1 mm 2 mps 728 mmHg 69%
    18:00 +31°C° 0.1 mm 2 mps 729 mmHg 73%
    19:00 +30°C° 0.1 mm 3 mps 729 mmHg 76%
    20:00 +29°C° 0.1 mm 3 mps 730 mmHg 80%
    21:00 +29°C° 0.2 mm 3 mps 730 mmHg 81%
    22:00 +28°C° 0.2 mm 3 mps 730 mmHg 82%
    23:00 +28°C° 0.2 mm 3 mps 730 mmHg 84%

    23 August, Friday

    Time Temperature Precipitation Wind Pressure Humidity
    00:00 +27°C° 0.3 mm 3 mps 730 mmHg 84%
    01:00 +27°C° 0.3 mm 3 mps 729 mmHg 84%
    02:00 +27°C° 0.3 mm 3 mps 729 mmHg 85%
    03:00 +27°C° 0 mm 3 mps 729 mmHg 85%
    04:00 +27°C° 0 mm 2 mps 729 mmHg 85%
    05:00 +27°C° 0 mm 2 mps 729 mmHg 86%
    06:00 +28°C° 0 mm 2 mps 730 mmHg 82%
    07:00 +29°C° 0 mm 2 mps 730 mmHg 79%
    08:00 +30°C° 0 mm 2 mps 731 mmHg 76%
    09:00 +31°C° 0 mm 2 mps 731 mmHg 71%
    10:00 +32°C° 0 mm 2 mps 731 mmHg 67%
    11:00 +34°C° 0 mm 2 mps 730 mmHg 63%
    12:00 +34°C° 0.1 mm 2 mps 730 mmHg 62%
    13:00 +35°C° 0.1 mm 2 mps 729 mmHg 61%
    14:00 +35°C° 0.1 mm 2 mps 729 mmHg 60%
    15:00 +34°C° 0.7 mm 2 mps 729 mmHg 65%
    16:00 +33°C° 0.7 mm 3 mps 729 mmHg 69%
    17:00 +33°C° 0.7 mm 3 mps 729 mmHg 74%
    18:00 +31°C° 1 mm 3 mps 729 mmHg 76%
    19:00 +30°C° 1 mm 3 mps 730 mmHg 79%
    20:00 +29°C° 1 mm 3 mps 731 mmHg 82%
    21:00 +29°C° 0.3 mm 3 mps 731 mmHg 84%
    22:00 +29°C° 0.3 mm 3 mps 731 mmHg 86%
    23:00 +28°C° 0.3 mm 3 mps 731 mmHg 88%

    24 August, Saturday

    Time Temperature Precipitation Wind Pressure Humidity
    00:00 +28°C° 0.8 mm 3 mps 730 mmHg 88%
    01:00 +28°C° 0.8 mm 3 mps 730 mmHg 89%
    02:00 +27°C° 0.8 mm 3 mps 730 mmHg 90%
    03:00 +27°C° 0.2 mm 3 mps 730 mmHg 91%
    04:00 +27°C° 0.2 mm 3 mps 730 mmHg 91%
    05:00 +27°C° 0.2 mm 3 mps 730 mmHg 92%
    06:00 +28°C° 0 mm 3 mps 731 mmHg 88%
    07:00 +29°C° 0 mm 3 mps 731 mmHg 85%
    08:00 +30°C° 0 mm 3 mps 732 mmHg 81%
    09:00 +30°C° 0.1 mm 3 mps 731 mmHg 77%
    10:00 +31°C° 0.1 mm 3 mps 731 mmHg 73%
    11:00 +32°C° 0.1 mm 2 mps 731 mmHg 69%
    12:00 +34°C° 0.5 mm 2 mps 730 mmHg 67%
    13:00 +34°C° 0.5 mm 2 mps 730 mmHg 66%
    14:00 +34°C° 0.5 mm 1 mps 729 mmHg 64%
    15:00 +33°C° 1.2 mm 1 mps 729 mmHg 67%
    16:00 +33°C° 1.2 mm 1 mps 729 mmHg 70%
    17:00 +33°C° 1.2 mm 1 mps 729 mmHg 73%
    18:00 +31°C° 3.3 mm 2 mps 729 mmHg 77%
    19:00 +30°C° 3.3 mm 2 mps 730 mmHg 82%
    20:00 +29°C° 3.3 mm 3 mps 730 mmHg 86%
    21:00 +29°C° 2 mm 2 mps 730 mmHg 87%
    22:00 +28°C° 2 mm 2 mps 730 mmHg 89%
    23:00 +28°C° 2 mm 1 mps 731 mmHg 91%
    Show more